FW9382 Weather Reports


Display with metric or nautical units.
time (UTC)temp
F
wind
direction
speed
MPH
gust
MPH
rain 1hr
in
rain 24hr
in
rain mn
in
humidity
%
barometer
mb
20260507060633 56 355 6.0 13.0 0.00 0.00 0.00 84 1007.7
20260507060132 56 11 6.0 11.0 0.00 0.00 0.00 84 1007.6
20260507055632 56 319 6.0 12.0 0.00 0.00 0.00 84 1007.5
20260507054633 56 0 6.0 13.0 0.00 0.00 0.00 83 1007.4
20260507053632 56 0 6.0 12.0 0.00 0.00 0.00 83 1007.4
20260507053133 56 337 6.0 15.0 0.00 0.00 0.00 83 1007.4
20260507052632 56 5 8.0 16.0 0.00 0.00 0.00 84 1007.4
20260507051632 56 348 7.0 15.0 0.00 0.00 0.00 84 1007.5
20260507051132 56 0 8.0 15.0 0.00 0.00 0.00 84 1007.5
20260507050645 56 342 9.0 15.0 0.00 0.00 0.00 84 1007.4
20260507050132 56 333 8.0 15.0 0.00 0.00 0.00 83 1007.6
20260507045632 56 331 7.0 14.0 0.00 0.00 0.00 84 1007.5
20260507045132 56 320 8.0 14.0 0.00 0.00 0.00 84 1007.5
20260507044632 56 330 8.0 15.0 0.00 0.00 0.00 84 1007.5
20260507044132 56 0 8.0 16.0 0.00 0.00 0.00 83 1007.6
20260507043632 56 349 8.0 16.0 0.00 0.00 0.00 83 1007.6
20260507043132 56 5 8.0 16.0 0.00 0.00 0.00 83 1007.6
20260507042633 56 348 9.0 16.0 0.00 0.00 0.00 83 1007.7
20260507041632 56 19 9.0 16.0 0.00 0.00 0.00 83 1007.7
20260507040632 56 346 10.0 16.0 0.00 0.00 0.00 83 1007.8
20260507040132 56 328 9.0 16.0 0.00 0.00 0.00 83 1007.9
20260507035632 56 17 8.0 16.0 0.00 0.00 0.00 83 1008.1
20260507035132 56 336 9.0 16.0 0.00 0.00 0.00 83 1008.2
20260507034632 56 342 8.0 16.0 0.00 0.00 0.00 83 1008.2
20260507034132 56 355 7.0 15.0 0.00 0.00 0.00 83 1008.2
20260507033631 56 317 7.0 13.0 0.00 0.00 0.00 83 1008.3
20260507033131 56 13 6.0 14.0 0.00 0.00 0.00 83 1008.3
20260507032631 56 329 8.0 16.0 0.00 0.00 0.00 83 1008.5
20260507032131 56 348 9.0 17.0 0.00 0.00 0.00 82 1008.4
20260507031632 56 336 8.0 17.0 0.00 0.00 0.00 82 1008.5
20260507031132 56 5 9.0 17.0 0.00 0.00 0.00 83 1008.5
20260507030632 56 348 9.0 17.0 0.00 0.00 0.00 82 1008.5
20260507030131 56 333 9.0 17.0 0.00 0.00 0.00 82 1008.5
20260507025631 56 355 10.0 18.0 0.00 0.00 0.00 82 1008.5
20260507025132 57 337 11.0 18.0 0.00 0.00 0.00 82 1008.3
20260507024632 57 342 10.0 16.0 0.00 0.00 0.00 83 1008.4
20260507024132 57 336 10.0 18.0 0.00 0.00 0.00 83 1008.4
20260507023631 57 333 10.0 18.0 0.00 0.00 0.00 83 1008.5
20260507022631 56 333 10.0 18.0 0.00 0.00 0.00 82 1008.6
20260507022132 57 9 8.0 15.0 0.00 0.00 0.00 83 1008.7
20260507021132 57 0 9.0 16.0 0.00 0.00 0.00 82 1008.7
20260507020632 57 331 8.0 16.0 0.00 0.00 0.00 82 1008.7
20260507020131 57 328 8.0 16.0 0.00 0.00 0.00 82 1008.7
20260507015632 57 323 9.0 16.0 0.00 0.00 0.00 82 1008.8
20260507015131 57 355 8.0 15.0 0.00 0.00 0.00 82 1008.8
20260507014632 57 330 8.0 15.0 0.00 0.00 0.00 82 1008.9
20260507014131 57 5 9.0 15.0 0.00 0.00 0.00 82 1008.8
20260507013632 57 338 10.0 17.0 0.00 0.00 0.00 82 1008.9
20260507012631 57 348 7.0 14.0 0.00 0.00 0.00 82 1009.0
20260507011632 57 16 9.0 17.0 0.00 0.00 0.00 82 1009.1
20260507011132 57 315 10.0 16.0 0.00 0.00 0.00 82 1009.0
20260507010632 57 316 9.0 16.0 0.00 0.00 0.00 82 1009.0
20260507010131 57 30 9.0 19.0 0.00 0.00 0.00 82 1009.0
20260507005632 57 339 9.0 19.0 0.00 0.00 0.00 82 1009.0
20260507005131 57 350 9.0 17.0 0.00 0.00 0.00 82 1009.1
20260507004632 57 343 9.0 17.0 0.00 0.00 0.00 82 1009.1
20260507003131 57 23 8.0 15.0 0.00 0.00 0.00 82 1009.1
20260507002632 57 336 7.0 15.0 0.00 0.00 0.00 82 1009.1
20260507002132 57 5 7.0 14.0 0.00 0.00 0.00 82 1009.1
20260507001132 57 5 8.0 15.0 0.00 0.00 0.00 82 1009.2
20260507000631 57 332 8.0 15.0 0.00 0.00 0.00 82 1009.3
20260507000132 57 25 8.0 14.0 0.00 0.00 0.00 82 1009.4
20260506235632 57 347 7.0 14.0 0.00 0.00 0.00 82 1009.4
20260506234632 57 340 7.0 14.0 0.00 0.00 0.00 81 1009.5
20260506233131 57 347 8.0 16.0 0.00 0.00 0.00 81 1009.5
20260506232131 57 5 7.0 16.0 0.00 0.00 0.00 81 1009.4
20260506231631 57 34 7.0 16.0 0.00 0.00 0.00 82 1009.4
20260506231132 57 15 6.0 13.0 0.00 0.00 0.00 82 1009.5
20260506230632 57 355 7.0 15.0 0.00 0.00 0.00 82 1009.5
20260506230131 57 11 8.0 15.0 0.00 0.00 0.00 82 1009.4
20260506225632 57 5 8.0 15.0 0.00 0.00 0.00 81 1009.6
20260506224632 57 23 7.0 15.0 0.00 0.00 0.00 81 1009.5
20260506224132 57 338 7.0 14.0 0.00 0.00 0.00 82 1009.6
20260506223632 57 355 7.0 14.0 0.00 0.00 0.00 82 1009.7
20260506223131 57 355 7.0 16.0 0.00 0.00 0.00 82 1009.6
20260506222631 57 334 7.0 16.0 0.00 0.00 0.00 82 1009.6
20260506222131 57 355 8.0 17.0 0.00 0.00 0.00 82 1009.6
20260506221632 57 329 8.0 17.0 0.00 0.00 0.00 81 1009.7
20260506221131 57 5 6.0 16.0 0.00 0.00 0.00 81 1009.7
20260506220631 57 355 7.0 15.0 0.00 0.00 0.00 81 1009.8
20260506220132 57 355 8.0 15.0 0.00 0.00 0.00 81 1009.9
20260506215631 57 321 8.0 14.0 0.00 0.00 0.00 81 1009.9
20260506214632 57 26 8.0 15.0 0.00 0.00 0.00 80 1009.9
20260506213632 57 350 8.0 14.0 0.00 0.00 0.00 81 1009.9
20260506213131 58 335 9.0 15.0 0.00 0.00 0.00 81 1009.9
20260506212631 57 12 10.0 19.0 0.00 0.00 0.00 81 1010.0
20260506212131 57 5 9.0 19.0 0.00 0.00 0.00 81 1010.0
20260506211632 58 14 8.0 16.0 0.00 0.00 0.00 81 1010.0
20260506211132 58 26 9.0 15.0 0.00 0.00 0.00 81 1009.9
20260506210632 58 0 9.0 17.0 0.00 0.00 0.00 80 1010.0
20260506210132 58 333 9.0 19.0 0.00 0.00 0.00 80 1009.9
20260506205632 58 17 10.0 19.0 0.00 0.00 0.00 80 1009.9
20260506205131 58 5 11.0 19.0 0.00 0.00 0.00 80 1009.8
20260506204632 58 309 10.0 19.0 0.00 0.00 0.00 80 1009.9
20260506204132 58 5 9.0 18.0 0.00 0.00 0.00 81 1009.8
20260506203631 58 26 10.0 18.0 0.00 0.00 0.00 81 1009.8
20260506202631 58 355 8.0 17.0 0.00 0.00 0.00 81 1009.7
20260506202131 58 317 10.0 20.0 0.00 0.00 0.00 81 1009.7
20260506201632 58 340 10.0 22.0 0.00 0.00 0.00 81 1009.6
20260506200131 58 342 9.0 17.0 0.00 0.00 0.00 81 1009.6
20260506195131 58 348 8.0 17.0 0.00 0.00 0.00 80 1009.6
20260506194631 58 341 8.0 15.0 0.00 0.00 0.00 81 1009.6
20260506193632 58 20 7.0 12.0 0.00 0.00 0.00 80 1009.7
20260506192631 58 34 7.0 14.0 0.00 0.00 0.00 80 1009.5
20260506192132 59 355 8.0 14.0 0.00 0.00 0.00 80 1009.5
20260506191632 59 0 9.0 17.0 0.00 0.00 0.00 79 1009.4
20260506191132 59 17 11.0 19.0 0.00 0.00 0.00 79 1009.4
20260506190632 59 12 10.0 19.0 0.00 0.00 0.00 79 1009.4
20260506190131 59 355 9.0 18.0 0.00 0.00 0.00 79 1009.3
20260506185632 59 15 8.0 18.0 0.00 0.00 0.00 79 1009.3
20260506184631 59 329 10.0 17.0 0.00 0.00 0.00 78 1009.5
20260506183631 60 19 10.0 19.0 0.00 0.00 0.00 78 1009.5
20260506183132 60 36 10.0 20.0 0.00 0.00 0.00 77 1009.4
20260506182132 61 349 8.0 17.0 0.00 0.00 0.00 77 1009.4
20260506181631 61 0 10.0 17.0 0.00 0.00 0.00 77 1009.4
20260506181131 61 19 10.0 17.0 0.00 0.00 0.00 76 1009.3
20260506180632 61 327 11.0 22.0 0.00 0.00 0.00 76 1009.4
20260506180131 62 350 11.0 22.0 0.00 0.00 0.00 76 1009.5
20260506175631 62 13 11.0 21.0 0.00 0.00 0.00 77 1009.3
20260506175131 62 0 11.0 21.0 0.00 0.00 0.00 76 1009.4
20260506174631 62 13 10.0 19.0 0.00 0.00 0.00 76 1009.4
20260506174131 62 0 10.0 19.0 0.00 0.00 0.00 75 1009.4
20260506173132 63 339 9.0 18.0 0.00 0.00 0.00 74 1009.5
20260506172631 63 355 9.0 18.0 0.00 0.00 0.00 74 1009.6
20260506172132 63 337 10.0 18.0 0.00 0.00 0.00 74 1009.6
20260506171631 63 355 11.0 19.0 0.00 0.00 0.00 73 1009.6
20260506170645 63 317 11.0 20.0 0.00 0.00 0.00 73 1009.5
20260506170131 63 319 10.0 20.0 0.00 0.00 0.00 74 1009.7
20260506165631 63 310 12.0 21.0 0.00 0.00 0.00 73 1009.7
20260506165131 63 333 12.0 21.0 0.00 0.00 0.00 72 1009.8
20260506164131 63 338 12.0 20.0 0.00 0.00 0.00 73 1010.0
20260506163631 63 307 13.0 21.0 0.00 0.00 0.00 73 1009.9
20260506163131 63 355 14.0 21.0 0.00 0.00 0.00 72 1009.9
20260506162631 63 355 13.0 20.0 0.00 0.00 0.00 73 1010.1
20260506162131 64 0 12.0 20.0 0.00 0.00 0.00 71 1010.0
20260506161132 64 355 12.0 20.0 0.00 0.00 0.00 72 1009.9
20260506160631 64 348 11.0 19.0 0.00 0.00 0.00 73 1010.0
20260506160131 64 0 12.0 20.0 0.00 0.00 0.00 73 1010.0
20260506155632 64 5 12.0 20.0 0.00 0.00 0.00 73 1010.1
20260506155132 64 347 10.0 20.0 0.00 0.00 0.00 74 1010.0
20260506154632 64 348 9.0 18.0 0.00 0.00 0.00 75 1010.1
20260506154131 64 318 11.0 20.0 0.00 0.00 0.00 75 1010.1
20260506153631 64 344 13.0 21.0 0.00 0.00 0.00 73 1010.1
20260506153131 64 333 13.0 21.0 0.00 0.00 0.00 74 1010.2
20260506152632 64 342 13.0 20.0 0.00 0.00 0.00 74 1010.2
20260506151131 64 318 12.0 19.0 0.00 0.00 0.00 72 1010.3
20260506150631 64 5 12.0 20.0 0.00 0.00 0.00 74 1010.4
20260506150131 64 332 12.0 21.0 0.00 0.00 0.00 74 1010.5
20260506145632 64 355 10.0 21.0 0.00 0.00 0.00 74 1010.6
20260506145131 64 329 11.0 21.0 0.00 0.00 0.00 74 1010.7
20260506144131 64 350 11.0 20.0 0.00 0.00 0.00 74 1010.8
20260506143632 64 342 13.0 21.0 0.00 0.00 0.00 74 1010.8
20260506143132 64 338 13.0 21.0 0.00 0.00 0.00 74 1010.8
20260506142631 64 343 12.0 20.0 0.00 0.00 0.00 73 1010.7
20260506142131 64 346 11.0 20.0 0.00 0.00 0.00 74 1010.9
20260506141632 65 317 11.0 19.0 0.00 0.00 0.00 73 1010.9
20260506141131 65 355 9.0 18.0 0.00 0.00 0.00 73 1010.8
20260506140133 65 346 10.0 18.0 0.00 0.00 0.00 73 1011.1
20260506135133 65 342 9.0 18.0 0.00 0.00 0.00 72 1011.2
20260506134633 65 331 11.0 19.0 0.00 0.00 0.00 73 1011.2
20260506134132 65 11 11.0 19.0 0.00 0.00 0.00 72 1011.3
20260506133632 65 340 9.0 19.0 0.00 0.00 0.00 72 1011.3
20260506133132 66 0 10.0 18.0 0.00 0.00 0.00 71 1011.3
20260506132632 66 346 10.0 20.0 0.00 0.00 0.00 72 1011.3
20260506132131 65 319 9.0 20.0 0.00 0.00 0.00 73 1011.4
20260506131632 65 323 9.0 16.0 0.00 0.00 0.00 72 1011.3
20260506131132 65 326 9.0 16.0 0.00 0.00 0.00 71 1011.5
20260506130131 65 315 9.0 17.0 0.00 0.00 0.00 72 1011.5
20260506125632 66 5 9.0 17.0 0.00 0.00 0.00 72 1011.6
20260506125131 65 294 9.0 17.0 0.00 0.00 0.00 73 1011.6
20260506124633 65 319 10.0 17.0 0.00 0.00 0.00 73 1011.8
20260506124131 65 5 10.0 18.0 0.00 0.00 0.00 73 1011.7
20260506123632 65 320 10.0 18.0 0.00 0.00 0.00 73 1011.7
20260506123132 65 22 10.0 17.0 0.00 0.00 0.00 74 1011.8
20260506122632 65 317 10.0 20.0 0.00 0.00 0.00 74 1011.8
20260506122132 64 325 10.0 20.0 0.00 0.00 0.00 74 1011.8
20260506121631 65 340 8.0 19.0 0.00 0.00 0.00 74 1011.9
20260506121132 64 342 9.0 17.0 0.00 0.00 0.00 74 1012.0
20260506120632 64 332 10.0 22.0 0.00 0.00 0.00 74 1012.0
20260506120132 64 355 9.0 22.0 0.00 0.00 0.00 75 1012.0
20260506115632 64 355 10.0 19.0 0.00 0.00 0.00 75 1012.0
20260506115131 64 347 11.0 19.0 0.00 0.00 0.00 74 1012.1
20260506113622 64 355 10.0 17.0 0.00 0.00 0.00 73 1012.2
20260506113116 64 0 9.0 16.0 0.00 0.00 0.00 74 1012.2
20260506112610 64 342 9.0 15.0 0.00 0.00 0.00 73 1012.2
20260506112108 65 329 8.0 15.0 0.00 0.00 0.00 73 1012.3
20260506111609 65 327 7.0 13.0 0.00 0.00 0.00 75 1012.3
20260506111108 65 355 6.0 14.0 0.00 0.00 0.00 74 1012.3
20260506110614 65 305 6.0 14.0 0.00 0.00 0.00 75 1012.4
20260506110108 65 315 7.0 13.0 0.00 0.00 0.00 75 1012.3
20260506105608 65 333 7.0 13.0 0.00 0.00 0.00 74 1012.3
20260506105106 65 315 7.0 15.0 0.00 0.00 0.00 75 1012.3
20260506104607 65 0 7.0 15.0 0.00 0.00 0.00 75 1012.3
20260506103607 65 329 6.0 10.0 0.00 0.00 0.00 75 1012.4
20260506103107 65 298 6.0 12.0 0.00 0.00 0.00 74 1012.3
20260506102605 65 306 5.0 12.0 0.00 0.00 0.00 75 1012.4
20260506102106 65 331 6.0 13.0 0.00 0.00 0.00 76 1012.4
20260506101605 64 342 7.0 14.0 0.00 0.00 0.00 75 1012.3
20260506101105 64 310 6.0 14.0 0.00 0.00 0.00 75 1012.3
20260506100604 64 313 7.0 13.0 0.00 0.00 0.00 75 1012.4
20260506100104 64 355 7.0 13.0 0.00 0.00 0.00 75 1012.3
20260506095604 64 346 7.0 12.0 0.00 0.00 0.00 76 1012.4
20260506095058 64 330 7.0 12.0 0.00 0.00 0.00 76 1012.3
20260506094553 64 342 6.0 12.0 0.00 0.00 0.00 76 1012.3
20260506094046 63 323 5.0 11.0 0.00 0.00 0.00 77 1012.3
20260506093036 63 348 6.0 11.0 0.00 0.00 0.00 77 1012.3
20260506092532 63 0 6.0 11.0 0.00 0.00 0.00 77 1012.3
20260506092032 63 305 5.0 11.0 0.00 0.00 0.00 78 1012.3
20260506091033 62 325 5.0 10.0 0.00 0.00 0.00 78 1012.4
20260506090533 62 308 5.0 11.0 0.00 0.00 0.00 78 1012.3
20260506085532 62 350 5.0 9.0 0.00 0.00 0.00 79 1012.2
20260506085032 61 344 5.0 9.0 0.00 0.00 0.00 80 1012.2
20260506084033 60 38 2.0 9.0 0.00 0.00 0.00 80 1012.3
20260506083532 60 331 3.0 6.0 0.00 0.00 0.00 81 1012.2
20260506083032 60 348 4.0 9.0 0.00 0.00 0.00 80 1012.3
20260506082534 60 347 4.0 9.0 0.00 0.00 0.00 80 1012.3
20260506082034 60 0 4.0 9.0 0.00 0.00 0.00 80 1012.3
20260506081534 60 12 5.0 9.0 0.00 0.00 0.00 81 1012.3
20260506081034 60 325 4.0 8.0 0.00 0.00 0.00 82 1012.3
20260506080533 60 5 4.0 8.0 0.00 0.00 0.00 82 1012.3
20260506073032 57 36 3.0 8.0 0.00 0.00 0.00 85 1012.2
20260506072032 57 47 2.0 6.0 0.00 0.00 0.00 86 1012.3
20260506071532 57 26 3.0 6.0 0.00 0.00 0.00 86 1012.3
20260506071031 57 22 3.0 8.0 0.00 0.00 0.00 86 1012.3
20260506070531 56 96 4.0 10.0 0.00 0.00 0.00 86 1012.3
20260506062031 55 25 1.0 4.0 0.00 0.00 0.00 87 1012.1
20260506061531 55 26 1.0 4.0 0.00 0.00 0.00 87 1012.0
20260506061031 55 27 0.0 4.0 0.00 0.00 0.00 87 1012.0